This demonstration page uses our WeatherBlox Daily Observations layout. Learn more.

Left ArrowRight Arrow

39.95238, -75.16362

Hourly Observations for April 3, 2015

Temp ( °F °C ) Dew Point ( °F °C ) Humidity (%) Winds ( mph kmh ) Pressure ( in mb ) Visibility ( mi km ) Precip ( " mm )
12:54 am 00:54 Mostly Cloudy 57 13.9 38 3.3 49 49 S 8 13 29.93 1014 10 16 0.00 0.00
1:54 am 01:54 Cloudy 59 15 37 2.8 44 44 SSW 10 17 29.91 1013 10 16 0.00 0.00
2:54 am 02:54 Cloudy 61 16.1 39 3.9 44 44 SW 13 20 29.89 1012 10 16 0.00 0.00
3:54 am 03:54 Cloudy 60 15.6 41 5 50 50 SW 14 22 29.89 1012 10 16 0.00 0.00
4:54 am 04:54 Cloudy 60 15.6 43 6.1 53 53 SSW 13 20 29.88 1012 10 16 0.00 0.00
5:54 am 05:54 Cloudy with Light Rain 60 15.6 46 7.8 60 60 SSW 14 22 29.88 1012 10 16 0.00 0.03
6:54 am 06:54 Cloudy 59 15 47 8.3 64 64 SSW 12 19 29.88 1012 10 16 0.00 0.03
7:54 am 07:54 Cloudy 60 15.6 49 9.4 67 67 SW 12 19 29.91 1013 10 16 0.00 0.00
8:54 am 08:54 Cloudy 62 16.7 51 10.6 67 67 SSW 16 26 29.89 1012 10 16 0.00 0.00
9:54 am 09:54 Cloudy 63 17.2 52 11.1 68 68 SW 16 26 29.90 1012 10 16 0.00 0.00
10:54 am 10:54 Cloudy with Light Rain 62 16.7 55 12.8 78 78 SW 14 22 29.90 1013 10 16 0.00 0.03
11:07 am 11:07 Cloudy with Light Rain 62 16.7 56 13.3 80 80 SW 14 22 29.91 1013 8 13 0.00 0.03
11:28 am 11:28 Cloudy with Light Rain 63 17 55 13 77 77 SW 15 24 29.91 1013 6 10 0.00 0.00
11:54 am 11:54 Cloudy with Light Rain 61 16.1 57 13.9 87 87 SW 10 17 29.88 1012 5 8 0.02 0.51
12:41 pm 12:41 Cloudy with Light Rain 61 16.1 58 14.4 90 90 S 7 11 29.83 1010 7 11 0.01 0.25
12:47 pm 12:47 Cloudy with Light Rain 61 16.1 58 14.4 90 90 SSW 12 19 29.85 1011 7 11 0.01 0.25
12:54 pm 12:54 Cloudy with Light Rain 61 16.1 58 14.4 90 90 SSW 15 24 29.86 1011 7 11 0.01 0.25
1:04 pm 13:04 Cloudy with Light Rain 61 16.1 58 14.4 90 90 SSW 10 17 29.83 1010 6 10 0.00 0.03
1:09 pm 13:09 Cloudy with Light Rain 61 16.1 58 14.4 90 90 S 8 13 29.83 1010 4 6 0.00 0.03
1:54 pm 13:54 Cloudy with Light Rain 61 16.1 58 14.4 90 90 SW 10 17 29.86 1011 4 6 0.05 1.27
2:01 pm 14:01 Cloudy with Light Rain 61 16.1 58 14.4 90 90 SW 13 20 29.85 1011 5 8 0.00 0.03
2:39 pm 14:39 Cloudy with Light Rain 61 16.1 59 15 93 93 SW 8 13 29.85 1011 4 6 0.02 0.51
2:42 pm 14:42 Cloudy with Light Rain 61 16.1 59 15 93 93 WSW 9 15 29.85 1011 3 4 0.02 0.51
2:47 pm 14:47 Cloudy with Light Rain 61 16.1 59 15 93 93 WSW 8 13 29.85 1011 3 5 0.03 0.76
2:54 pm 14:54 Cloudy with Light Rain 61 16.1 59 15 93 93 WSW 9 15 29.84 1011 3 5 0.03 0.76
3:20 pm 15:20 Cloudy with Light Rain 61 16.1 59 15 93 93 SW 9 15 29.83 1010 5 8 0.01 0.25
3:54 pm 15:54 Cloudy with Mist and Fog 62 16.7 59 15 90 90 SW 9 15 29.82 1010 5 8 0.01 0.25
4:03 pm 16:03 Cloudy with Mist and Fog 63 17 59 15 88 88 SW 8 13 29.80 1009 5 8 0.00 0.00
4:31 pm 16:31 Cloudy with Mist and Fog 62 16.7 59 15 90 90 SW 7 11 29.80 1009 5 8 0.00 0.00
4:54 pm 16:54 Cloudy with Mist and Fog 62 16.7 59 15 90 90 SW 6 9 29.79 1009 5 8 0.00 0.00
5:04 pm 17:04 Cloudy with Mist and Fog 61 16 59 15 94 94 S 5 7 29.80 1009 5 8 0.00 0.00
5:25 pm 17:25 Cloudy with Mist and Fog 61 16.1 59 15 93 93 SSW 3 6 29.80 1009 5 8 0.00 0.00
5:54 pm 17:54 Cloudy with Mist and Fog 62 16.7 59 15 90 90 S 6 9 29.77 1008 5 8 0.00 0.00
6:04 pm 18:04 Cloudy with Mist and Fog 61 16.1 59 15 93 93 S 5 7 29.77 1008 6 10 0.00 0.00
6:24 pm 18:24 Cloudy with Mist and Fog 61 16.1 59 15 93 93 S 5 7 29.77 1008 6 10 0.00 0.00
6:54 pm 18:54 Cloudy with Mist and Fog 61 16.1 59 15 93 93 S 6 9 29.75 1007 6 10 0.00 0.00
7:54 pm 19:54 Cloudy with Mist and Fog 61 16.1 59 15 93 93 S 9 15 29.74 1007 5 8 0.00 0.00
8:54 pm 20:54 Cloudy with Mist and Fog 60 15.6 58 14.4 93 93 S 6 9 29.71 1006 5 8 0.00 0.00
9:49 pm 21:49 Cloudy with Mist and Fog 61 16 57 14 88 88 SSW 5 7 29.71 1006 4 6 0.00 0.00
9:54 pm 21:54 Cloudy with Mist and Fog 60 15.6 58 14.4 93 93 S 7 11 29.69 1006 4 6 0.00 0.00
10:42 pm 22:42 Mostly Cloudy with Mist and Fog 59 15 57 14 94 94 S 7 11 29.65 1004 4 6 0.00 0.00
10:54 pm 22:54 Cloudy with Mist and Fog 59 15 58 14.4 96 96 SSW 6 9 29.66 1005 3 5 0.00 0.00
11:11 pm 23:11 Cloudy with Mist and Fog 59 15 58 14.4 96 96 SSW 3 6 29.65 1004 2 3 0.00 0.00
11:23 pm 23:23 Cloudy with Mist and Fog 58 14.4 57 13.9 97 97 S 6 9 29.65 1004 2 3 0.00 0.00
11:28 pm 23:28 Cloudy with Mist and Fog 57 14 55 13 94 94 S 6 9 29.65 1004 2 2 0.00 0.00
11:42 pm 23:42 Cloudy with Mist and Fog 57 13.9 57 13.9 100 100 S 5 7 29.62 1003 3 4 0.00 0.00
11:54 pm 23:54 Cloudy with Mist and Fog 58 14.4 57 13.9 97 97 SSW 6 9 29.63 1004 3 4 0.00 0.00

Powered by AerisWeather